Powrót do katalogu

DELTA 1 R/B

AktywnyHEO
NORAD 3315·ROCKET BODY·🇺🇸 United States

Wystrzelony Jul 4, 1968 z Vandenberg Space Force Base

Loading…

Następne Przeloty (najbliższe 24 godziny)

TLE

ŚwieżeSource: Space-Track

Epoka: Sep 14, 2026, 04:03 UTC

1 03315U 68055B   26257.16934694  .00000110  00000-0  34900-3 0  9991
2 03315 120.6672 351.9663 2628195 286.6519  72.0359  9.25767284949795

Śledź DELTA 1 R/B w czasie rzeczywistym z AllMySat

Download on the App Store